Список аэропортов
Фактическая погода:

23 февраля, 17:50
Температура: +9°C (+4.1*)
Ветер: сев.-восточный 14 м/с
Давление: *766 мм
Без существ. явл.
Время (МСК)Темп. СВетерВлажностьДавлениеОблачностьОсадки
15:00+8СВ, 10 м/с32%1026 гПаясно
16:00+8СВ, 10 м/с31%1026 гПаясно
17:00+8СВ, 11 м/с30%1025 гПаясно
18:00+8С, 11 м/с30%1025 гПаясно
19:00+7С, 12 м/с31%1025 гПаясно
20:00+6С, 11 м/с33%1025 гПаясно
21:00+6С, 11 м/с34%1024 гПаясно
22:00+5С, 10 м/с35%1025 гПаясно
23:00+5С, 9 м/с36%1025 гПаясно
24 февраля
00:00+5С, 8 м/с38%1026 гПаясно
01:00+4С, 9 м/с40%1026 гПаясно
02:00+4С, 9 м/с42%1026 гПаоблачно
03:00+4С, 10 м/с41%1026 гПаоблачно
04:00+4С, 10 м/с40%1026 гПаоблачно
05:00+4С, 10 м/с42%1026 гПаоблачно
06:00+4С, 10 м/с41%1026 гПаоблачно
07:00+4С, 9 м/с42%1026 гПаоблачно
08:00+4С, 8 м/с43%1027 гПас прояснениями
09:00+4С, 10 м/с41%1027 гПаоблачно
10:00+5С, 9 м/с40%1027 гПаясно
11:00+6СВ, 9 м/с39%1028 гПаясно
12:00+8СВ, 10 м/с37%1028 гПаясно
13:00+9СВ, 10 м/с36%1029 гПаясно
14:00+10СВ, 9 м/с35%1029 гПаясно
15:00+11СВ, 8 м/с33%1029 гПаясно
16:00+11СВ, 8 м/с30%1029 гПамалооблачно
17:00+11С, 7 м/с29%1029 гПамалооблачно
18:00+12С, 6 м/с28%1028 гПамалооблачно
19:00+11С, 6 м/с26%1028 гПас прояснениями
20:00+10С, 4 м/с30%1029 гПамалооблачно
21:00+9С, 6 м/с34%1029 гПаясно
22:00+8С, 6 м/с37%1029 гПаясно
23:00+8С, 6 м/с42%1029 гПаясно
25 февраля
00:00+7С, 6 м/с45%1029 гПаясно
01:00+6С, 5 м/с47%1030 гПаясно
02:00+6С, 5 м/с50%1030 гПаясно
03:00+6С, 5 м/с53%1030 гПаясно
04:00+6С, 5 м/с58%1030 гПаясно
05:00+5С, 4 м/с62%1029 гПаясно
06:00+5С, 5 м/с63%1030 гПаясно
07:00+5С, 5 м/с63%1030 гПаясно
08:00+5С, 5 м/с64%1029 гПаясно
09:00+5С, 4 м/с66%1029 гПаясно
10:00+7С, 9 м/с55%1028 гПаясно
11:00+8С, 10 м/с49%1029 гПаясно
12:00+9С, 10 м/с45%1028 гПаясно
13:00+10С, 8 м/с43%1028 гПаоблачно
14:00+11СВ, 7 м/с41%1028 гПаоблачно
15:00+11СВ, 9 м/с37%1028 гПамалооблачно